Theta_e
333 329 329 329 330 327 323 322 305 314 309 302 298 300 298 308 308 308 307 311 305 310 313 314 313 314 312 310 311 316 317 312 313 302 302 322 330 332 337 339 340 341 341 342 344 345 346 347 347 346 346 344 342 340 340 341 341 343 344 344 344 344 345 345 346 346 345 344 342 342 342 341 341 341 341 341 341 340 340 341 341 341 340 340 339 339 339 337 337 338 338 338 337 337 336 335 336
330 329 330 331 327 325 317 320 311 303 306 298 298 301 303 306 308 306 306 308 308 309 313 313 313 316 316 314 312 316 317 322 322 320 323 329 332 332 338 339 341 340 342 342 342 343 343 343 345 346 344 343 341 341 341 342 347 347 347 346 345 345 346 345 345 346 344 343 343 343 342 341 342 341 341 341 341 340 340 340 340 340 340 339 339 339 338 337 337 337 338 337 337 337 336 335 335
330 329 329 329 326 324 319 321 306 302 301 295 298 301 305 303 304 308 309 310 314 316 316 316 316 315 314 314 311 314 311 326 324 323 322 331 326 328 337 339 341 342 342 341 341 342 342 341 344 346 344 342 340 342 342 342 347 347 347 346 346 346 345 345 345 345 344 343 342 342 342 341 341 340 340 341 340 341 340 339 338 338 338 338 337 337 338 339 338 338 337 337 336 336 335 335 335
332 331 328 326 317 322 316 314 309 304 300 298 298 303 303 303 305 310 314 316 315 316 318 314 313 317 312 311 311 316 319 319 326 325 323 326 324 331 336 339 341 342 342 341 342 341 340 341 343 346 345 342 341 341 341 342 346 346 345 346 346 346 346 346 345 345 345 343 342 342 341 340 340 340 339 340 339 339 340 339 339 339 339 340 337 336 336 337 337 337 337 337 336 336 335 334 334
330 330 330 324 321 314 314 311 306 306 299 300 298 304 305 305 307 313 315 315 315 315 314 313 311 318 320 315 317 313 314 322 324 325 325 329 331 333 338 340 340 340 340 341 342 341 339 341 343 344 344 341 340 341 340 344 345 346 345 347 346 346 345 345 345 345 345 343 342 341 341 340 340 340 340 340 339 339 339 339 339 339 339 339 339 338 338 337 337 336 336 336 336 335 335 334 334
327 328 330 332 318 323 316 307 306 304 305 306 302 304 307 307 308 312 314 316 317 317 316 315 309 311 312 314 323 319 325 318 324 327 328 324 331 337 338 339 339 338 339 339 339 339 338 340 342 343 344 340 339 340 340 345 345 345 345 346 346 346 345 345 345 345 344 344 342 341 341 340 340 340 340 339 339 339 338 338 338 339 339 337 336 336 336 337 336 336 335 335 335 334 334 334 334
323 323 327 329 324 322 309 305 305 305 306 310 305 306 308 309 308 311 312 313 317 316 317 314 317 314 310 316 323 325 328 329 326 327 330 329 334 337 337 336 338 337 338 338 340 339 338 340 342 343 344 343 340 340 341 344 345 346 345 346 346 346 345 345 345 345 345 343 342 341 341 340 340 340 339 339 339 339 339 338 339 339 338 338 338 337 337 337 336 336 336 335 335 335 334 334 333
329 323 322 314 311 313 307 306 306 308 307 311 311 308 310 311 310 310 311 312 311 311 313 316 314 310 313 319 311 326 329 331 332 332 331 330 333 336 336 335 334 336 337 338 339 338 342 339 341 343 343 343 341 341 341 344 345 346 345 345 345 346 346 345 345 345 345 343 342 341 341 340 340 340 340 339 338 338 338 338 338 338 338 338 337 336 336 336 336 336 336 335 335 333 333 333 333
325 322 329 318 309 314 306 305 307 312 310 311 311 313 315 312 312 310 310 311 311 314 312 313 314 308 312 312 316 323 326 332 333 334 331 330 332 335 335 335 334 336 338 339 338 337 337 338 341 343 342 343 342 342 342 343 345 345 344 344 344 345 344 344 346 345 345 344 342 341 340 340 340 339 339 338 338 338 337 338 337 337 337 338 337 337 337 336 336 336 335 334 334 334 334 333 333
320 322 313 314 312 303 304 304 308 309 310 312 312 312 312 313 311 309 311 310 310 311 313 314 315 308 310 312 318 323 322 330 331 331 331 331 333 333 333 335 336 337 337 339 338 337 337 342 339 341 341 343 344 343 343 344 345 345 344 343 343 344 344 346 346 345 344 343 342 341 340 340 339 339 338 339 338 338 338 337 337 337 337 337 337 337 337 336 336 336 335 334 334 334 334 333 333
313 321 326 312 306 302 303 303 306 309 310 313 312 313 312 312 311 309 310 311 310 312 314 315 311 312 310 314 320 329 328 329 328 328 331 332 332 331 331 333 336 338 337 339 339 337 337 338 341 337 340 340 342 344 344 345 345 344 344 344 344 343 344 345 345 345 344 343 342 342 340 339 339 338 338 338 340 338 337 337 337 337 336 337 337 336 336 336 335 335 335 334 334 333 333 333 333
312 314 319 307 305 303 304 304 307 309 311 312 308 311 311 311 313 309 310 309 309 311 312 312 311 310 306 311 317 325 328 328 329 331 332 332 330 330 332 332 336 337 338 340 339 336 335 338 338 341 336 338 340 343 344 345 345 345 345 344 344 343 343 345 345 344 344 343 342 341 340 339 338 338 338 339 340 340 337 337 337 337 336 336 336 336 336 336 335 334 333 333 333 333 333 333 333
315 317 310 306 304 305 306 305 306 307 309 308 307 310 312 310 309 312 309 311 310 309 311 313 315 313 306 317 321 326 325 329 330 331 332 330 330 330 332 333 334 335 338 338 337 336 336 335 335 338 335 333 336 339 341 343 344 345 345 345 345 344 344 344 344 344 344 343 342 342 340 339 339 339 339 339 340 339 339 339 339 337 336 336 336 336 336 335 336 334 333 333 333 333 332 332 333
315 316 312 305 309 307 305 305 307 305 304 307 309 312 313 312 312 312 311 309 310 311 316 316 314 313 310 318 318 320 324 329 330 331 331 331 330 331 331 332 334 333 336 337 335 337 335 334 334 337 335 335 337 336 336 339 342 344 343 344 345 344 344 345 344 344 344 343 342 341 341 340 340 339 339 340 339 337 337 336 338 337 336 335 335 335 335 335 335 335 334 333 332 332 332 332 332
316 318 312 309 305 305 307 303 308 305 304 308 311 312 312 313 314 313 311 309 312 317 318 319 320 315 305 309 313 321 326 329 330 331 330 330 330 331 332 332 334 333 333 333 333 333 334 334 333 334 335 334 338 338 338 337 337 339 341 341 342 343 343 342 341 342 341 340 340 339 339 338 337 337 336 336 336 335 334 331 333 337 336 335 335 335 335 335 335 336 335 334 333 332 333 333 333
322 316 312 306 302 303 306 306 308 306 305 309 312 313 312 312 313 313 313 313 313 320 318 312 318 312 313 318 321 326 328 329 330 330 328 328 329 330 330 330 329 330 330 331 331 332 333 334 333 333 334 333 334 334 337 338 334 334 338 338 338 339 340 338 338 337 335 334 334 335 334 334 333 333 332 332 332 333 333 330 331 335 337 335 335 335 335 334 335 335 336 336 335 335 334 334 332
322 320 306 304 301 304 306 306 308 302 308 309 311 312 311 308 312 314 316 316 311 313 314 317 316 320 319 324 327 329 329 329 328 328 327 326 325 324 326 327 326 327 330 329 330 330 332 332 334 333 332 333 332 332 335 339 336 332 333 332 332 334 336 335 333 329 327 327 329 329 331 335 334 332 331 331 328 329 324 326 330 333 336 337 337 335 335 334 334 334 335 336 336 336 333 331 330
320 309 305 302 304 304 308 307 309 312 309 308 311 312 312 308 310 312 315 313 312 313 313 315 320 319 324 326 330 329 329 328 328 326 325 323 324 322 322 322 323 323 326 327 330 330 329 331 331 333 332 331 331 332 335 339 337 336 338 335 335 332 331 330 331 334 335 333 328 330 334 334 334 333 332 334 330 327 325 324 327 331 334 335 336 336 335 335 334 333 333 334 334 332 329 323 321
310 307 306 302 306 308 313 312 312 311 310 312 311 311 312 311 313 311 310 311 311 310 311 313 315 320 323 326 328 327 327 326 326 325 324 322 322 322 322 322 323 324 324 326 327 329 329 329 330 330 330 331 331 331 334 337 337 338 337 338 337 333 334 334 336 336 336 335 334 334 333 334 334 334 332 332 333 326 326 323 325 328 330 331 333 333 334 335 334 334 332 330 330 330 321 321 321
312 308 303 305 310 311 313 314 313 314 314 312 312 314 311 313 313 316 311 309 312 311 311 310 312 315 320 324 326 326 326 325 326 324 323 323 323 323 322 323 323 323 325 326 326 329 329 328 328 329 329 330 331 330 333 333 336 336 333 337 337 337 335 336 336 337 337 337 335 335 333 332 333 333 332 332 332 327 323 321 322 324 326 327 327 329 331 331 332 330 327 326 324 322 322 323 324
312 308 304 307 311 309 312 314 314 314 315 313 313 313 312 314 314 315 312 308 309 312 314 314 313 315 320 323 326 326 325 324 324 324 323 323 323 324 323 324 324 324 326 326 326 328 328 329 328 329 330 330 330 329 330 328 336 335 332 332 335 337 337 336 336 335 335 336 335 335 333 331 333 332 332 331 331 329 327 327 325 327 327 325 323 326 326 327 326 324 321 320 320 321 321 323 323
311 308 310 310 311 308 312 314 314 313 314 313 312 310 311 315 314 311 311 307 306 311 314 314 314 319 321 321 325 326 325 324 323 323 323 323 323 323 324 324 326 326 326 325 326 327 328 329 329 329 330 330 329 329 329 328 330 331 329 330 333 335 337 336 335 334 334 335 335 334 332 331 330 331 332 330 328 329 328 328 327 327 327 326 322 326 325 324 324 324 323 321 320 322 322 323 323
304 308 309 311 311 309 313 313 314 312 313 311 310 313 314 312 311 314 312 310 312 316 317 317 315 315 324 324 325 324 325 324 324 323 324 323 324 324 324 324 325 324 325 325 326 327 328 329 329 329 329 330 329 329 329 328 327 329 328 328 330 332 334 335 334 333 335 334 334 334 331 329 329 329 330 328 328 329 328 329 328 328 327 327 325 325 324 326 324 324 324 323 322 322 323 323 321
308 304 309 310 311 310 312 312 313 312 312 312 313 315 312 311 307 312 311 314 315 316 316 316 318 316 316 321 325 324 324 325 324 325 326 325 325 325 325 325 325 325 324 325 326 327 326 328 329 329 329 328 328 329 329 328 328 329 329 328 328 329 331 333 333 332 334 334 334 333 330 331 330 329 329 329 329 329 327 328 327 327 326 325 326 325 324 323 323 323 323 323 323 323 321 320 320
306 305 308 309 311 312 312 312 312 313 313 314 313 310 311 312 310 312 311 314 315 315 316 316 317 317 315 315 324 324 324 325 325 326 327 327 327 327 327 326 324 325 324 325 326 326 327 328 329 329 329 328 328 329 328 327 328 329 329 327 327 327 330 331 332 332 333 332 333 332 331 329 329 329 328 328 328 327 327 327 325 325 326 325 325 322 324 322 322 322 322 321 322 322 320 321 321
307 307 308 309 309 311 311 311 311 311 313 313 311 309 312 313 313 310 313 314 316 317 316 316 317 316 315 315 315 321 322 323 325 325 326 327 327 327 327 326 325 324 325 326 325 326 327 328 328 328 329 329 328 328 328 327 328 328 328 327 328 326 327 329 330 330 332 332 330 332 330 329 328 328 327 327 326 326 325 326 325 325 324 324 324 321 321 322 321 321 322 321 321 321 321 321 321
309 308 308 307 309 310 310 308 310 311 312 313 309 309 310 312 310 305 313 315 316 316 316 317 316 316 316 315 316 316 318 321 324 326 325 326 326 326 326 327 325 325 325 325 326 326 327 327 327 328 329 327 328 327 327 327 328 328 327 327 327 327 326 327 328 328 330 331 332 331 329 329 329 329 327 327 326 327 327 326 326 325 325 324 325 324 321 322 323 321 321 322 321 320 321 320 320
309 308 307 307 308 309 309 309 309 310 309 311 310 308 310 311 310 308 312 315 316 315 315 315 315 314 314 315 315 317 317 319 322 325 324 325 325 326 326 326 326 326 325 325 326 327 327 327 327 328 329 328 328 327 327 327 328 328 327 327 327 327 327 326 326 327 326 329 330 332 331 331 329 330 329 327 326 325 325 325 325 325 325 325 326 325 325 326 323 321 321 320 320 321 318 318 319
308 307 302 304 306 304 307 306 308 309 307 310 311 307 305 307 305 310 313 315 315 315 314 314 315 315 314 315 315 316 317 318 319 322 324 326 327 328 327 328 328 327 327 327 327 326 326 327 328 327 328 328 328 327 327 328 328 328 327 327 327 328 327 326 326 326 326 327 328 330 331 331 329 330 330 328 325 325 324 325 325 325 325 325 324 325 326 325 324 321 321 319 318 316 316 318 319
308 306 303 301 301 301 306 308 307 306 308 309 309 295 299 304 308 311 313 313 314 313 313 313 314 314 315 315 314 315 316 317 318 319 323 325 327 328 327 329 329 329 327 327 327 326 328 329 329 328 327 327 327 328 328 328 328 327 327 327 326 327 326 326 326 327 326 326 327 329 329 330 329 330 329 328 326 326 325 325 325 325 325 325 326 326 325 324 323 322 319 318 318 315 314 317 317
300 303 304 298 296 296 304 304 305 303 308 307 309 295 298 303 306 310 312 313 312 311 311 312 313 314 314 315 315 315 316 317 318 319 322 325 327 329 328 329 329 330 328 328 327 326 327 328 328 328 327 327 326 327 326 327 327 327 326 326 326 326 326 326 326 327 326 326 325 326 328 328 328 328 328 327 325 323 323 324 324 325 325 324 325 325 325 324 323 322 319 318 317 316 316 317 318
302 297 294 298 295 297 302 305 305 301 305 308 305 296 298 303 306 309 309 309 312 311 311 312 313 313 314 314 314 315 316 317 319 320 321 323 326 327 328 328 329 330 329 329 328 328 327 328 327 327 326 326 327 327 327 327 327 327 327 325 326 326 326 326 326 326 325 325 325 324 327 328 327 328 327 327 326 324 323 322 322 323 324 324 323 323 324 323 323 323 321 320 317 317 317 317 318
300 296 294 294 296 296 298 302 304 305 304 306 304 297 301 302 307 309 309 308 308 308 308 310 312 313 313 312 312 313 314 315 318 321 321 322 325 326 327 328 328 330 330 329 328 328 328 328 326 326 326 326 327 327 326 326 326 326 326 326 326 326 325 325 325 325 325 324 324 324 325 327 327 327 327 327 326 325 323 322 320 321 322 322 322 322 323 323 323 323 322 320 319 317 318 318 318
293 297 293 296 294 295 294 301 303 304 304 300 304 301 301 302 305 307 308 308 308 307 307 308 311 311 312 312 312 312 312 314 316 318 321 322 323 325 326 325 328 329 330 329 329 329 328 328 327 326 327 326 327 327 326 326 326 326 325 326 324 326 326 325 325 324 324 324 325 324 325 326 326 327 326 326 326 325 324 323 321 321 321 321 321 321 321 322 322 322 321 321 320 319 318 318 318
291 293 293 294 296 296 295 294 300 303 303 300 300 301 302 304 306 307 307 308 308 308 308 308 309 311 311 310 310 311 312 312 314 317 320 322 322 324 324 324 327 328 330 330 330 329 329 328 327 325 326 326 326 327 326 326 325 325 324 325 325 325 326 326 325 325 325 325 325 325 325 324 323 326 326 325 325 325 324 324 323 322 321 320 320 319 319 319 320 320 320 321 321 320 319 319 318
295 295 294 295 293 294 294 299 302 303 300 299 299 298 300 303 304 306 307 308 307 306 306 308 309 309 309 310 310 310 310 311 314 317 320 322 323 323 323 324 326 327 328 329 328 329 329 328 327 326 326 327 327 327 326 325 324 323 322 323 323 324 324 324 325 325 325 325 325 325 325 325 323 324 325 325 325 324 324 324 323 322 321 320 319 319 318 317 317 317 318 318 318 319 320 319 318
298 297 296 294 295 296 299 300 302 304 301 300 300 301 301 302 303 305 306 307 306 306 306 306 306 307 309 309 309 309 309 310 315 318 320 322 323 324 324 324 324 326 326 328 328 329 329 328 327 326 326 327 326 325 325 324 323 322 322 322 322 323 323 324 324 325 324 325 325 325 325 325 324 323 323 324 324 322 324 324 324 323 322 321 320 319 319 318 318 318 317 316 316 317 317 319 318
298 296 295 293 295 293 299 299 301 303 298 297 300 300 300 301 303 304 306 306 304 305 305 306 306 307 307 308 309 309 309 312 315 316 316 319 321 324 324 324 322 323 324 325 326 328 329 329 327 327 326 327 326 326 325 325 324 324 322 322 323 323 323 322 322 323 324 324 324 325 325 325 325 324 323 324 323 323 323 323 323 322 321 321 321 320 319 316 317 317 318 316 317 316 316 317 317
298 295 294 293 293 297 299 299 300 301 299 295 297 296 297 300 302 303 303 304 305 306 306 307 307 307 308 308 308 309 309 309 311 313 314 313 318 323 324 324 324 324 324 324 325 326 328 328 328 328 327 327 327 326 326 325 325 325 324 323 323 323 324 324 323 323 323 323 324 324 324 325 325 324 324 323 323 323 323 323 322 321 320 320 319 318 318 317 317 317 317 316 315 316 316 316 317
297 295 293 291 295 293 289 296 298 300 297 294 295 295 296 299 301 302 304 304 304 306 306 306 308 307 307 308 309 309 309 309 310 311 312 313 316 320 321 323 324 324 322 323 324 324 326 327 328 328 328 327 327 327 325 327 326 326 326 325 325 324 323 324 324 323 323 323 323 324 324 324 324 324 324 324 323 323 323 322 322 320 320 319 319 317 317 316 316 316 317 317 316 313 314 314 316
298 297 295 294 294 295 294 294 298 299 299 299 296 295 295 298 297 299 302 304 304 305 305 305 306 307 309 310 310 310 308 309 310 310 311 312 313 317 319 320 324 323 323 323 323 323 325 326 327 328 329 328 328 326 326 327 326 325 325 325 323 323 323 323 323 322 323 322 323 323 323 324 323 323 323 324 322 323 323 322 321 320 320 320 319 318 317 317 317 317 317 317 316 315 312 312 314
296 298 298 297 297 296 296 297 296 293 293 296 296 286 288 294 296 298 301 302 302 304 303 303 304 305 306 307 308 309 310 310 309 310 311 311 313 314 316 317 319 322 323 323 324 324 324 325 326 327 328 329 328 328 327 327 325 325 323 322 321 321 320 321 320 320 321 321 322 323 323 324 323 322 322 322 322 321 321 321 321 320 320 320 320 319 318 317 317 317 317 317 316 316 314 312 312
293 295 301 300 299 298 297 296 295 288 286 294 298 287 284 292 293 296 298 299 300 302 302 303 304 305 305 306 307 308 309 310 310 311 311 310 311 312 314 315 317 319 322 324 324 324 324 324 325 326 327 328 329 328 328 326 326 325 324 323 322 321 321 321 323 323 323 323 323 322 323 323 324 323 322 323 322 321 321 321 321 321 321 321 320 320 318 318 318 318 318 318 317 317 315 312 312
291 299 300 300 299 297 297 296 295 292 296 297 297 294 287 287 293 297 298 298 298 299 301 302 303 304 305 306 306 307 309 309 309 310 311 311 311 311 311 313 316 319 321 323 323 323 323 323 324 325 326 326 328 328 328 327 325 325 324 324 323 322 322 322 323 323 324 323 323 323 323 323 323 323 322 322 323 322 320 321 322 321 321 321 320 320 319 319 319 319 318 319 318 317 316 314 313
294 300 302 299 298 298 298 296 294 294 292 288 292 295 288 287 292 296 297 295 296 298 299 301 302 302 303 305 306 307 309 309 309 309 311 312 312 313 313 313 314 315 320 321 322 324 324 324 323 324 325 325 325 327 327 327 325 325 325 324 323 323 323 323 323 323 323 323 323 323 323 323 323 323 323 323 323 323 320 321 322 322 321 321 319 321 320 319 319 319 319 318 318 317 317 316 314
298 301 302 301 300 299 298 293 292 291 288 284 289 293 286 286 292 292 294 294 294 296 298 300 302 303 303 305 306 308 309 309 309 310 311 312 313 313 314 314 315 315 315 320 321 322 324 324 323 322 323 325 325 326 326 327 326 324 324 324 323 323 323 323 323 322 322 323 322 322 323 322 323 322 323 323 322 323 322 321 321 322 322 322 319 321 320 320 319 319 320 319 319 317 317 316 316
301 299 297 296 296 294 293 292 291 286 284 287 292 293 290 283 289 290 291 294 296 298 299 300 302 303 304 305 305 308 309 309 308 309 311 312 313 313 313 312 314 315 315 315 318 320 322 323 323 322 323 324 324 325 325 325 326 325 324 324 324 323 323 323 322 322 322 322 322 322 322 322 322 322 323 322 322 323 323 321 321 322 322 321 320 321 321 320 320 320 320 320 319 318 317 317 315
298 294 292 292 289 292 289 287 289 283 282 289 293 293 293 283 288 294 298 299 300 299 298 299 299 300 302 303 305 306 306 307 309 309 309 310 311 312 312 311 312 313 314 315 315 318 320 322 322 322 322 323 324 324 324 325 326 325 324 324 324 324 324 323 322 321 322 322 322 321 322 322 322 322 322 322 322 322 322 322 321 321 321 322 322 322 322 322 321 321 321 320 319 319 318 316 316
296 293 291 286 282 285 280 285 280 282 281 288 292 293 289 288 292 296 298 299 298 298 299 300 301 302 303 303 304 304 305 305 307 308 309 309 309 310 309 311 310 311 313 314 315 316 319 321 322 322 321 322 323 324 324 324 324 325 325 324 324 324 324 324 323 322 322 322 322 322 321 321 322 321 322 321 322 322 321 321 321 320 320 321 322 322 322 322 321 321 321 320 320 319 318 317 316
293 291 288 284 280 279 277 280 281 282 285 289 289 292 287 292 294 299 299 301 302 303 303 302 301 301 300 302 303 303 304 305 306 307 307 307 308 309 309 310 311 312 312 314 314 315 318 320 321 321 322 322 323 323 323 323 324 324 325 325 324 324 323 324 324 323 323 323 323 323 322 322 322 322 322 322 322 322 321 321 321 321 321 321 321 322 322 322 322 321 320 320 320 320 319 318 317
293 295 292 287 285 280 276 278 276 278 280 284 289 284 280 286 289 299 299 301 303 304 304 304 304 304 303 302 302 302 302 302 302 304 306 306 307 307 309 311 312 313 314 314 314 314 317 318 319 320 320 321 322 322 323 323 323 324 324 325 325 324 324 323 324 325 324 323 323 323 323 323 323 323 323 323 322 322 321 321 321 321 321 321 320 320 321 321 321 321 320 320 320 321 320 319 318
295 296 295 288 285 290 281 282 280 279 280 281 283 283 286 288 295 298 300 300 301 300 303 303 303 304 304 304 303 303 304 304 305 305 306 306 306 307 308 310 312 313 314 314 314 314 314 316 317 318 319 320 321 320 322 322 323 323 324 324 324 324 322 322 322 323 324 325 324 323 323 324 324 324 323 323 323 322 322 321 320 320 321 321 320 320 320 321 321 320 320 319 319 320 320 319 319
291 294 287 290 296 292 285 285 285 283 282 279 286 286 290 294 297 298 298 298 298 298 299 299 299 301 302 303 304 304 305 305 306 306 305 305 305 306 308 307 308 309 311 313 314 314 315 315 315 316 316 317 317 318 320 322 323 322 322 323 323 323 323 322 322 322 323 324 324 324 324 324 324 324 324 323 323 322 322 321 321 320 320 320 320 320 320 320 320 320 319 319 319 319 319 319 319
291 287 291 297 296 291 285 280 283 282 278 280 287 283 285 285 282 297 297 297 298 298 298 300 301 301 300 302 303 303 303 304 305 305 304 305 306 307 308 308 308 309 310 312 313 314 315 316 315 315 315 315 316 317 317 319 320 321 322 322 323 323 323 323 322 322 322 322 323 323 324 323 323 324 324 324 323 322 322 318 321 320 320 320 320 320 320 320 320 320 320 319 320 319 318 318 318
291 290 299 290 282 283 286 284 277 278 277 279 283 284 285 286 287 291 291 294 296 297 299 300 299 301 301 302 302 302 303 304 304 305 306 307 307 308 308 310 310 312 312 311 312 313 313 314 315 315 315 314 315 316 316 317 319 321 322 322 322 322 323 323 323 322 322 321 321 322 323 324 324 323 322 323 322 322 322 321 321 320 320 320 320 320 320 320 320 320 319 319 319 319 318 318 318
296 295 291 294 289 286 284 284 285 283 277 279 278 283 281 290 289 292 293 295 296 296 296 298 298 300 302 302 303 303 303 304 306 306 306 307 307 307 307 307 307 307 307 307 309 309 310 310 310 311 312 312 312 313 313 314 316 318 320 321 322 322 322 322 322 322 321 321 321 322 322 322 323 323 323 323 322 322 322 321 321 320 320 320 320 320 320 319 320 319 319 319 319 318 318 317 317
287 287 286 288 284 289 288 287 283 280 278 278 276 277 281 291 294 294 294 295 296 297 297 297 299 300 302 304 304 304 303 303 303 304 304 305 306 306 305 304 305 304 304 304 305 307 308 308 309 309 309 310 310 311 312 313 314 316 316 318 320 321 321 322 321 322 321 321 321 320 322 322 322 322 322 322 322 322 322 322 321 320 320 319 319 319 320 319 319 319 319 319 318 318 317 317 317
289 288 286 287 285 283 279 277 287 283 281 279 280 276 284 294 298 297 296 296 297 297 297 298 298 300 302 303 302 302 303 303 303 304 304 304 304 304 304 303 303 303 303 303 304 305 305 306 308 309 309 309 309 310 310 311 312 314 314 316 318 320 321 321 320 321 320 321 321 321 321 321 321 322 322 322 321 321 321 322 321 320 320 320 320 319 319 319 318 318 318 319 318 317 317 316 317
Wind_Speed
13 12 12 12 10 7 5 2 2 0 2 1 4 4 3 1 1 3 4 7 4 3 5 3 4 4 5 4 5 12 10 6 4 1 1 2 3 4 3 13 11 11 10 9 8 5 4 6 8 9 13 11 10 10 9 7 6 9 9 8 8 8 10 10 11 12 13 13 12 12 12 12 13 14 14 13 13 13 13 14 14 15 15 15 15 16 16 15 16 16 16 16 15 15 16 16 16
10 11 12 10 7 4 3 2 1 5 2 6 4 3 1 1 1 8 7 9 4 3 3 3 3 4 3 5 3 6 10 10 7 6 4 4 3 4 3 12 13 11 10 9 9 7 5 5 8 9 11 11 10 10 10 8 10 8 8 8 8 8 9 10 12 13 12 13 12 11 11 12 13 14 13 13 12 12 12 14 14 14 14 14 15 15 15 15 16 15 16 15 15 15 15 15 15
10 11 10 7 8 3 5 2 2 3 2 4 4 2 2 4 7 7 8 8 6 4 3 3 2 0 2 4 2 6 2 8 11 8 5 5 7 5 6 11 11 10 11 8 8 8 7 5 7 10 12 10 10 10 9 9 10 9 9 9 8 7 9 11 11 12 13 13 12 11 12 12 13 13 13 12 12 12 12 12 13 14 13 14 13 14 15 14 14 15 15 14 15 15 15 15 15
10 10 7 5 5 5 3 1 3 4 4 4 3 4 5 4 7 8 7 5 4 2 0 1 1 2 4 6 4 3 5 5 7 9 5 5 4 7 4 13 11 10 8 7 9 8 7 7 7 10 11 11 10 9 8 8 10 9 9 9 9 9 9 11 11 12 12 12 11 11 11 12 12 12 12 12 11 12 13 12 12 13 13 13 13 13 14 13 14 14 14 14 15 15 15 15 15
9 6 5 4 2 3 3 3 3 2 3 4 5 3 6 4 5 7 5 3 2 1 2 2 1 0 2 1 3 2 3 7 7 7 6 3 10 6 7 11 9 8 8 8 9 9 9 12 7 7 9 11 10 8 6 10 9 9 9 9 9 10 10 11 11 12 12 12 11 11 11 11 11 12 12 11 11 11 12 12 12 13 13 13 14 13 13 13 13 13 14 14 14 15 15 15 14
8 6 6 1 2 1 2 2 3 3 3 3 3 5 6 6 4 5 5 4 3 2 2 2 3 1 2 3 3 3 3 1 4 6 5 5 12 6 11 8 7 6 6 8 8 9 8 12 8 7 8 11 10 8 7 10 9 9 9 9 9 9 11 11 11 11 13 12 12 11 10 10 11 11 11 11 11 11 11 11 12 12 12 12 12 12 12 13 13 13 13 13 13 14 14 14 13
6 6 3 1 3 1 2 4 3 4 2 3 3 4 5 5 2 4 5 4 2 2 1 2 1 1 1 3 6 4 5 2 4 3 6 7 8 7 11 8 9 7 5 6 10 9 10 11 10 7 8 10 11 9 8 10 9 10 9 10 10 9 10 10 11 11 12 12 12 11 9 10 10 11 10 11 11 10 11 11 11 11 11 11 12 12 12 12 12 12 12 13 13 13 13 12 12
5 2 2 3 3 2 3 3 3 2 1 3 2 3 4 4 2 1 6 4 4 2 2 4 2 2 5 5 3 2 7 8 9 11 12 9 7 7 6 7 7 7 4 7 10 8 10 11 9 7 8 9 10 10 9 10 9 9 9 10 11 10 11 11 10 11 12 12 12 11 10 9 9 9 10 10 10 10 11 10 10 10 10 11 11 11 11 11 11 11 11 11 12 12 12 12 11
4 3 2 1 3 2 4 4 3 2 5 3 4 5 3 3 0 1 5 3 4 4 5 4 1 2 1 3 6 3 4 8 9 10 10 9 8 7 5 6 6 7 6 11 9 9 7 8 8 7 8 7 8 9 9 10 9 7 9 10 10 10 9 10 11 11 12 12 11 11 10 9 9 9 9 9 9 9 10 10 10 10 10 10 10 11 11 11 11 11 11 10 11 11 11 11 10
5 2 2 2 3 4 4 5 0 1 2 5 1 7 3 2 2 2 2 5 5 2 6 4 2 2 4 6 4 3 4 6 7 8 8 9 9 6 4 7 7 8 8 9 8 7 6 9 6 7 7 6 6 9 8 10 8 9 8 8 9 9 8 10 11 11 12 12 11 11 11 10 9 8 9 9 9 9 9 9 9 9 9 9 10 10 10 10 10 10 10 10 10 10 10 10 9
4 2 2 1 2 4 4 4 3 4 5 1 7 6 3 1 1 2 2 5 3 4 2 5 2 2 3 4 3 1 6 7 7 10 8 8 7 5 4 4 8 8 5 9 8 8 7 6 7 6 6 4 4 7 8 9 9 8 7 8 8 8 8 9 10 12 11 13 11 11 10 10 9 8 8 8 7 8 8 8 8 8 8 9 9 10 9 9 9 9 10 10 9 8 8 8 7
3 2 1 2 3 3 4 4 3 3 3 2 6 5 0 2 0 2 1 3 3 5 3 4 0 1 3 3 2 3 5 5 7 8 8 8 6 5 4 3 7 8 6 8 7 9 7 6 5 5 5 5 6 6 9 9 8 8 7 8 8 7 8 9 10 11 12 12 11 11 10 10 9 8 7 6 5 5 8 8 8 8 8 8 8 9 9 9 9 8 9 9 9 8 7 7 7
3 3 3 3 3 4 4 7 3 3 2 4 6 2 1 3 2 1 4 1 5 3 6 2 3 2 1 3 2 5 5 5 7 8 9 7 6 4 4 3 5 7 9 7 7 9 8 7 6 4 4 6 7 7 8 8 7 7 7 7 6 6 7 9 10 11 10 11 11 11 10 10 9 8 7 6 5 5 6 4 7 8 8 7 8 8 8 8 8 8 7 8 8 8 7 6 6
2 3 3 3 4 5 5 3 4 3 2 3 4 3 2 1 3 5 3 2 2 2 3 6 1 4 0 7 3 4 5 6 8 7 7 7 5 4 4 5 1 5 7 5 5 10 8 8 7 6 5 4 4 6 7 7 8 7 7 5 5 5 8 8 9 9 9 10 10 9 9 8 9 8 7 7 7 7 6 5 5 7 8 8 7 7 7 7 7 7 6 6 7 7 7 6 5
2 3 2 2 4 3 3 3 0 3 1 4 1 3 1 5 2 1 3 3 4 3 2 1 3 1 1 0 4 5 7 8 8 7 6 7 5 4 4 5 3 2 6 5 4 6 8 9 7 7 6 4 6 5 4 5 8 8 8 6 6 7 9 8 8 9 8 7 9 9 9 8 8 8 8 8 8 7 6 6 5 4 7 8 7 7 7 6 6 6 6 6 6 6 6 6 5
2 2 2 2 4 3 3 3 3 2 1 4 1 3 3 2 2 1 2 2 2 1 1 1 2 0 3 6 5 9 11 9 7 7 6 7 5 4 4 5 4 3 5 4 4 4 6 6 7 7 7 6 5 5 6 5 7 9 9 7 7 8 9 9 8 8 8 9 9 10 9 7 7 6 8 6 7 8 5 5 4 2 5 7 7 7 7 6 6 6 6 6 6 6 6 5 5
1 1 2 3 6 4 3 4 0 3 7 3 5 3 1 4 3 1 1 1 2 3 1 2 2 1 3 4 9 11 10 8 8 7 6 6 5 5 4 4 4 4 4 4 3 5 5 6 7 7 8 8 6 7 6 7 7 9 7 8 8 8 9 9 8 8 7 8 9 9 9 6 4 4 6 5 7 4 6 6 5 2 2 5 6 7 7 6 6 5 5 6 6 6 5 5 4
1 2 3 5 4 5 3 6 3 2 2 6 4 3 1 4 3 3 0 2 3 5 2 3 4 4 8 7 9 10 10 9 8 9 7 7 5 5 5 4 4 5 4 5 5 4 5 5 6 6 8 9 6 6 5 7 7 8 6 6 5 6 7 7 7 5 6 5 8 8 5 5 5 5 5 7 5 6 5 5 5 5 5 5 4 5 6 6 7 6 5 5 5 5 6 4 3
3 2 4 6 4 4 6 5 3 6 4 5 10 2 2 2 3 2 1 2 5 4 4 4 5 6 6 8 11 10 10 8 9 8 9 9 8 9 7 5 5 5 5 5 6 6 4 5 5 6 6 8 7 5 4 7 9 6 6 6 5 7 7 7 6 6 5 5 5 6 5 5 5 6 5 6 5 8 7 7 5 5 7 7 6 6 5 5 5 5 4 2 2 4 4 4 3
5 3 5 7 4 8 10 8 10 4 6 4 6 2 5 2 2 2 2 3 5 4 2 6 6 9 9 9 10 9 9 9 9 8 9 9 8 9 8 8 7 6 7 6 6 6 6 4 5 5 5 7 6 5 5 7 7 6 5 6 6 6 7 6 6 7 6 6 6 5 5 4 4 4 8 11 10 6 5 7 7 6 7 6 8 5 3 3 4 2 1 1 3 3 4 5 5
3 7 6 6 5 6 6 9 9 5 3 4 5 4 5 1 2 0 2 4 3 4 3 4 1 6 10 10 9 8 9 9 8 8 8 8 7 6 7 8 8 7 6 7 6 7 7 7 5 5 4 5 5 4 4 4 7 6 6 6 6 7 7 6 6 6 6 7 7 6 6 4 4 6 6 5 6 6 6 4 4 4 4 4 5 3 4 3 3 3 2 3 4 5 5 6 4
4 6 6 8 7 9 10 11 10 4 7 6 4 7 5 5 0 3 3 5 5 1 3 4 3 7 12 10 9 7 9 9 9 9 10 10 11 9 7 6 6 6 6 7 7 7 8 7 6 5 6 5 7 6 5 6 6 7 7 7 7 7 7 7 6 6 6 6 7 6 6 5 4 6 6 5 4 6 6 6 5 6 6 5 5 5 5 5 5 5 5 5 5 5 6 6 5
8 6 9 8 8 8 6 8 3 8 3 2 3 3 6 4 5 2 3 5 3 6 3 2 3 3 10 9 9 8 8 9 10 11 9 9 9 8 7 7 8 9 7 7 7 6 8 7 7 7 7 7 8 6 6 6 5 5 7 7 7 7 7 7 7 7 7 6 7 7 6 5 4 3 5 5 4 4 6 7 6 6 7 7 7 6 6 7 6 6 6 6 6 6 7 6 4
9 7 5 11 12 15 9 6 10 5 3 1 2 4 8 5 7 3 6 4 5 4 3 5 3 4 3 8 10 10 10 10 11 11 11 11 10 11 8 8 7 6 7 7 8 7 8 10 9 8 7 7 7 7 6 6 6 5 5 7 7 7 7 7 7 6 6 7 6 6 5 5 6 5 4 6 5 5 5 6 7 8 7 7 8 7 6 5 7 7 5 6 7 7 4 4 3
9 9 9 10 8 8 9 7 9 10 7 5 5 5 9 8 7 4 8 7 6 3 3 4 5 2 5 3 11 9 10 9 10 9 8 7 8 8 7 6 6 7 8 9 8 8 9 9 9 9 8 8 7 8 7 6 6 6 6 6 7 6 7 7 7 6 6 6 6 6 6 5 6 6 5 5 6 6 5 4 5 5 6 5 6 5 5 4 5 6 5 5 5 5 4 4 4
10 11 7 7 10 10 10 9 10 7 3 4 5 8 9 9 7 12 10 8 8 7 5 7 9 9 5 6 5 9 9 10 9 9 11 9 8 9 9 8 7 9 9 9 8 8 8 9 10 11 10 9 9 8 7 6 7 8 7 5 6 5 6 6 5 6 6 6 6 5 5 5 5 5 5 5 6 5 5 4 4 4 4 4 3 3 3 3 4 4 5 5 5 5 5 7 6
2 8 12 13 11 10 10 12 10 10 6 6 10 8 9 7 5 7 4 6 6 8 9 7 9 10 9 6 6 6 8 9 11 9 7 7 8 9 10 10 9 8 8 10 9 9 8 11 11 11 10 8 7 9 8 7 7 7 7 6 5 6 6 6 6 6 6 6 6 5 4 5 5 5 6 6 6 6 6 5 5 4 4 5 5 5 3 4 5 4 4 6 5 4 5 5 6
12 10 10 10 8 7 7 9 10 7 8 7 11 13 8 7 6 10 7 3 4 5 4 5 5 5 5 5 5 5 6 7 8 9 10 10 9 9 10 10 11 8 9 10 9 8 9 12 12 12 12 10 9 9 8 8 8 7 8 7 7 6 6 6 7 7 7 6 7 7 7 6 6 6 4 5 7 6 6 6 5 5 5 6 6 5 5 5 5 4 4 3 4 4 3 3 3
9 6 10 10 11 13 11 10 8 6 7 4 3 9 10 8 14 11 11 8 10 11 13 12 10 8 6 5 6 5 7 6 6 9 10 9 8 8 11 10 11 10 7 9 9 9 10 10 11 11 11 10 10 11 9 9 8 7 7 8 7 7 7 6 6 6 6 6 7 8 8 8 7 7 7 5 6 7 6 7 7 6 6 6 5 5 5 4 4 4 5 4 3 2 2 4 4
9 10 8 9 10 12 10 10 11 9 5 4 4 10 5 12 12 11 13 13 13 14 13 11 10 10 8 6 6 7 6 7 7 8 8 9 9 10 10 9 10 11 9 8 9 11 9 7 7 8 10 11 12 9 9 9 8 7 7 7 8 8 7 7 8 7 7 6 7 8 8 8 8 8 9 7 6 6 7 7 7 7 6 5 6 6 6 5 5 4 5 5 6 4 4 4 5
7 6 6 8 6 11 6 10 9 14 7 9 7 12 7 7 7 10 15 15 14 13 11 10 11 11 8 7 8 6 7 7 9 8 8 10 10 10 11 8 9 9 8 9 12 12 11 9 8 8 10 11 11 11 10 9 8 7 7 7 7 7 7 7 7 8 8 7 7 8 9 9 9 8 8 8 6 6 6 7 7 7 6 5 6 6 6 6 6 6 6 7 5 5 5 5 6
6 5 9 6 10 8 5 8 11 13 6 13 9 13 11 10 8 10 10 7 9 12 12 10 9 9 8 7 7 8 8 7 9 9 10 10 10 10 11 10 10 10 11 11 12 12 13 11 11 9 10 11 11 12 10 9 9 8 7 7 7 7 7 8 7 7 7 7 8 7 8 9 9 9 8 8 7 6 7 7 7 6 7 7 6 6 6 7 7 7 6 7 6 6 7 7 7
7 10 5 6 7 8 9 9 10 13 8 10 17 7 4 8 15 14 13 11 9 10 8 6 8 8 7 5 5 5 6 7 7 10 10 9 9 9 10 10 11 12 11 11 11 12 12 13 13 12 13 13 11 12 10 8 8 9 8 7 7 7 8 8 7 6 7 7 7 8 8 10 10 11 10 9 8 7 6 6 6 6 6 7 7 6 7 6 6 7 7 7 7 7 8 8 8
6 6 9 7 8 5 7 2 10 8 11 9 15 14 11 3 7 9 7 5 8 9 9 11 7 6 6 6 8 7 6 6 8 8 10 9 8 10 9 10 11 11 11 11 11 13 13 13 13 14 12 13 11 12 11 10 8 7 7 7 7 8 9 8 7 7 7 8 7 8 8 9 10 11 11 9 8 8 6 6 6 7 7 7 7 7 7 6 7 7 7 7 7 7 7 7 8
6 8 9 8 9 11 9 4 2 12 11 13 8 13 11 9 8 8 10 13 8 7 7 6 7 8 7 6 5 5 5 5 7 7 8 9 9 9 8 7 8 9 9 11 10 10 10 11 11 12 12 13 12 10 10 9 8 6 4 6 8 9 8 9 8 8 8 7 9 9 10 9 10 11 11 10 9 9 8 7 8 8 7 8 7 7 8 8 8 8 9 8 8 9 8 7 7
12 10 6 8 8 7 10 11 10 2 4 8 11 12 8 10 10 11 11 10 14 14 8 6 8 8 7 7 7 6 5 6 5 6 7 9 9 8 7 6 7 8 8 10 10 9 10 10 9 10 11 12 11 10 9 9 8 8 8 7 9 10 10 9 9 10 9 10 9 9 10 10 9 10 11 11 10 10 10 9 9 8 8 8 9 9 9 8 10 10 10 9 8 8 9 8 7
10 5 8 10 9 8 6 7 8 8 6 10 9 10 12 12 10 10 7 7 12 14 13 12 9 8 9 9 9 8 7 8 6 6 5 5 9 9 8 7 7 8 8 9 10 10 11 11 10 12 11 11 11 11 11 11 11 10 9 11 12 10 10 10 9 10 10 11 11 10 10 10 10 11 12 12 12 11 10 9 9 9 9 9 10 11 10 9 9 9 8 8 9 9 8 8 8
12 10 10 8 6 6 4 5 4 6 8 5 6 11 14 13 10 10 10 12 14 10 11 12 13 13 11 9 10 10 9 5 5 4 5 6 6 9 9 8 8 9 9 10 11 13 12 12 12 11 9 11 12 12 11 12 12 13 13 13 11 10 9 11 12 11 12 10 11 12 12 11 12 11 11 12 11 12 11 10 11 11 10 10 10 9 9 9 9 9 8 8 8 10 8 6 8
12 10 9 9 10 5 6 8 4 4 3 5 5 11 11 10 11 10 11 12 10 10 12 13 11 11 11 11 9 8 7 8 6 6 6 5 7 8 9 9 10 13 12 12 12 11 11 12 11 10 11 12 12 13 12 13 12 12 12 11 12 10 10 10 9 8 8 9 10 12 12 11 12 12 12 13 12 12 12 12 12 11 12 10 10 11 11 11 11 11 11 10 7 8 8 6 7
10 10 10 12 7 5 6 7 6 7 5 4 4 11 10 9 10 12 13 14 12 13 15 14 13 14 13 11 9 9 10 9 9 8 8 8 8 9 8 9 11 11 10 11 11 12 11 11 11 11 12 13 12 13 13 13 13 13 11 8 8 9 8 9 9 8 8 9 12 11 11 12 13 12 13 13 12 13 14 14 12 11 12 11 11 11 11 12 11 11 11 11 8 8 9 9 8
11 12 10 10 9 8 8 5 4 4 6 8 7 9 12 11 12 11 10 9 12 14 13 15 14 12 11 8 8 8 8 7 9 10 9 8 9 11 13 12 12 11 12 12 13 13 11 14 15 15 13 14 14 14 15 12 10 9 9 7 5 7 5 7 9 11 11 12 11 12 14 12 12 13 13 14 14 15 14 14 13 13 12 12 11 12 12 13 12 11 12 11 12 11 9 7 8
9 11 13 11 7 8 9 6 7 6 9 4 1 5 14 7 12 16 12 11 17 15 15 18 16 15 11 11 12 9 10 8 9 9 9 9 10 10 11 13 13 12 13 13 14 15 14 14 15 15 13 13 14 15 15 12 11 12 11 11 11 10 11 11 14 17 14 15 16 13 11 13 14 13 13 14 14 13 14 15 13 13 13 12 12 12 11 10 12 13 14 13 13 12 9 7 8
10 10 10 10 10 10 10 9 5 7 7 1 1 8 14 2 5 7 7 12 16 11 14 14 12 13 13 11 11 11 11 11 11 12 11 10 9 8 9 10 13 13 13 13 13 13 15 15 16 17 16 15 15 15 16 13 13 12 15 16 15 15 15 14 13 10 12 12 10 11 12 12 14 14 14 13 13 14 13 13 14 13 12 12 11 11 12 14 12 13 11 12 13 11 10 10 11
12 5 3 7 12 13 11 9 10 10 3 4 1 3 8 17 13 11 8 12 8 7 8 9 11 12 12 13 13 12 10 9 9 11 12 13 13 13 12 10 10 13 13 12 11 10 13 15 15 16 14 15 15 15 15 16 15 15 15 15 14 14 16 16 13 12 10 8 11 13 11 12 13 14 14 14 14 14 14 13 13 12 13 13 12 13 14 12 10 10 12 13 11 11 13 13 10
7 2 4 3 3 1 4 8 9 6 4 9 9 4 8 14 17 4 6 10 9 14 13 11 10 7 7 11 13 11 10 9 10 10 11 12 15 15 14 14 13 11 11 12 12 13 14 15 15 13 13 13 12 13 14 16 16 16 16 14 14 14 15 13 9 9 10 10 12 11 12 13 13 14 14 14 15 14 14 14 14 13 14 14 12 12 12 12 14 13 13 13 13 12 12 12 10
10 3 3 2 3 1 3 3 3 3 5 12 12 9 9 17 17 4 5 9 10 9 9 12 11 12 13 12 10 12 10 9 11 11 12 14 13 13 13 12 12 13 10 10 11 11 11 11 12 13 15 13 13 14 14 15 17 15 14 14 17 15 12 11 9 10 11 11 13 13 12 12 12 13 15 15 15 15 15 16 15 16 15 13 12 13 12 13 14 13 14 14 13 14 11 11 13
1 4 5 3 1 2 3 2 1 3 11 15 16 13 13 13 14 4 6 7 7 8 7 7 8 11 12 11 8 7 10 10 8 11 11 11 12 12 11 11 11 10 9 8 8 9 9 10 11 13 15 13 12 13 14 16 15 14 14 16 18 17 16 13 11 12 11 11 13 14 12 12 11 13 12 13 16 15 15 15 15 15 13 12 12 13 13 13 13 13 13 13 14 16 12 12 11
9 5 4 1 1 0 2 1 1 8 14 15 18 14 14 14 14 2 7 8 8 8 9 7 6 5 5 7 9 9 7 8 11 10 8 8 8 9 9 10 7 7 7 6 6 6 7 8 9 11 11 12 11 12 13 15 14 15 15 16 17 17 16 12 15 16 15 14 14 13 11 10 11 11 11 12 14 15 14 13 15 14 14 14 14 13 12 12 12 12 12 12 12 14 13 12 12
4 6 7 9 3 5 7 4 10 14 15 4 4 8 10 17 17 14 6 8 4 4 4 5 8 10 13 8 6 6 7 7 7 7 7 7 8 9 7 8 6 6 6 7 8 7 8 8 10 11 12 12 13 13 15 16 16 15 16 17 17 16 16 16 15 15 14 14 13 13 12 13 11 11 12 14 14 16 14 14 15 15 15 16 15 14 13 13 12 12 13 13 12 13 14 14 13
7 10 9 9 8 8 10 9 6 7 8 9 10 7 13 0 9 18 22 23 17 21 22 12 8 7 4 2 1 2 3 4 5 5 5 6 7 7 7 7 5 6 7 8 8 8 7 8 9 11 13 12 13 13 14 14 15 15 15 15 16 15 15 15 15 15 15 13 12 14 14 14 13 14 14 15 14 14 14 16 15 15 15 13 13 14 13 13 12 12 12 13 14 12 11 14 14
9 4 9 10 9 5 9 7 13 13 9 1 9 5 4 11 10 13 9 12 16 15 14 14 19 16 10 7 8 8 7 6 5 6 9 11 12 9 8 7 5 5 6 8 7 7 7 8 9 11 11 11 11 13 12 13 13 14 15 15 15 13 14 14 14 13 14 14 14 14 13 12 12 13 14 13 12 14 16 14 14 14 14 14 13 13 12 12 12 11 10 12 11 11 11 13 13
8 8 3 6 14 8 14 2 4 3 4 5 5 6 3 6 2 7 6 12 12 7 14 14 14 14 15 12 12 12 11 10 10 11 13 12 9 7 6 5 5 5 6 6 6 6 6 7 8 10 11 11 12 12 12 13 14 13 15 16 16 16 14 13 12 12 13 13 14 13 13 13 12 12 12 12 14 14 15 16 15 15 15 14 14 14 13 12 12 12 11 11 12 10 11 13 13
7 9 14 15 10 11 5 9 7 5 5 8 1 6 7 4 11 13 10 7 7 3 7 7 6 8 10 12 13 13 12 10 11 11 9 7 5 5 5 6 6 6 5 5 6 6 6 7 7 9 9 9 10 11 12 12 13 13 14 15 15 14 15 16 15 15 15 13 12 12 12 12 11 11 11 12 12 13 15 16 15 16 15 15 14 14 15 13 12 12 12 13 13 11 11 13 11
1 9 11 3 7 5 3 7 4 10 12 10 7 14 9 4 8 8 14 14 13 9 7 8 11 11 8 9 11 9 6 8 10 8 5 5 5 7 7 5 4 4 6 6 7 7 7 7 7 8 8 9 10 10 10 10 12 12 13 14 14 15 15 16 15 15 13 12 12 11 10 10 12 12 11 10 12 13 13 15 15 15 15 15 15 14 14 14 13 12 13 13 12 10 10 10 11
14 4 9 10 5 9 5 1 11 10 12 7 9 10 10 6 9 3 3 7 9 8 11 11 9 11 12 10 7 5 5 6 5 4 4 5 5 5 5 3 2 1 2 4 5 4 4 5 5 7 9 9 10 9 9 9 10 10 10 13 14 14 14 13 13 13 12 13 14 13 13 13 11 11 11 12 12 12 13 14 14 15 14 15 15 14 14 14 14 13 13 13 12 12 11 11 11
15 8 4 1 1 4 9 7 2 3 9 5 11 9 11 5 5 5 11 13 13 9 6 6 6 7 10 9 2 3 4 3 6 6 5 4 4 4 3 4 5 5 5 5 5 5 5 6 6 7 7 7 7 9 9 9 10 10 11 10 11 12 12 13 13 12 13 14 14 13 13 13 14 12 13 12 12 13 13 14 14 14 14 14 15 14 14 14 14 13 13 12 13 13 13 13 12
10 9 9 4 3 1 2 1 5 4 6 10 8 10 3 3 1 1 2 4 5 5 4 4 7 6 9 11 9 7 6 5 5 5 4 3 3 3 4 5 5 5 5 5 5 6 7 6 6 7 8 9 9 11 9 10 8 10 11 12 12 11 13 12 12 13 13 14 13 13 13 13 11 13 12 12 13 13 13 14 14 14 15 15 15 15 14 14 14 14 13 13 13 14 15 13 11
10 12 14 15 11 8 8 12 4 3 4 5 8 12 5 2 2 3 3 4 4 5 5 5 6 9 8 8 6 4 4 2 2 2 3 4 5 5 5 5 5 5 5 7 7 5 5 5 6 6 6 8 9 10 8 9 8 9 10 11 12 11 11 10 12 12 13 13 12 13 13 11 13 13 12 14 13 12 12 13 13 15 15 15 15 16 15 14 15 15 15 12 13 14 14 14 12
Wind_Direction
309 306 308 304 294 282 307 249 289 213 185 51 64 65 115 61 260 148 91 172 78 55 23 35 13 33 19 4 357 68 26 42 11 67 160 150 233 173 225 119 122 124 126 125 125 144 152 132 132 135 126 129 124 122 122 119 129 114 110 108 112 111 108 109 108 106 101 100 101 101 100 96 94 93 88 87 84 87 89 90 88 85 84 84 81 84 87 84 81 80 80 80 79 79 79 80 80
298 305 303 297 293 336 268 350 251 247 153 64 65 82 81 156 175 47 57 62 47 59 360 35 67 26 332 1 327 117 48 43 57 82 66 131 192 161 157 118 127 133 125 124 140 146 137 130 137 144 134 127 125 129 124 119 107 110 109 110 114 119 119 114 111 111 108 104 104 104 104 102 97 92 93 91 92 89 85 84 87 87 84 87 89 88 84 86 84 82 80 80 82 83 81 81 82
299 303 302 301 297 229 263 227 275 352 355 116 61 88 201 54 54 65 59 57 70 65 20 56 357 170 251 231 226 43 106 96 87 89 105 139 132 213 160 134 129 125 126 145 146 144 136 138 150 139 134 130 131 127 126 127 121 118 114 115 117 121 121 117 118 118 113 109 106 108 107 106 104 101 99 98 94 95 93 88 84 84 87 85 85 90 92 91 91 89 87 87 88 89 87 83 83
288 280 275 317 313 321 271 280 253 354 348 71 124 54 58 52 70 75 69 84 74 96 204 147 229 76 306 345 360 94 74 73 99 131 127 176 164 179 190 124 126 131 141 146 150 142 132 144 152 145 137 131 131 128 129 138 120 114 112 114 118 118 116 120 125 118 114 111 111 114 114 107 105 104 100 96 95 91 89 91 91 91 90 93 95 90 90 87 85 85 85 86 85 85 84 84 87
290 296 309 305 314 319 4 306 322 347 22 356 71 66 59 55 87 91 90 87 93 96 283 40 315 332 68 281 345 38 80 98 74 112 133 180 131 183 124 124 133 135 151 151 151 132 133 139 149 147 136 134 134 130 137 128 118 112 114 112 116 125 127 130 129 121 118 115 116 116 116 114 111 105 102 102 99 97 96 95 97 94 93 93 92 92 92 93 93 93 93 94 91 89 89 87 87
301 315 280 264 268 19 276 281 259 53 35 6 44 65 66 55 65 94 121 106 82 55 23 308 357 338 138 50 16 91 300 310 122 84 103 115 140 168 121 130 124 137 160 159 119 117 134 138 141 143 141 135 138 140 137 129 126 116 119 120 121 123 130 132 132 131 123 119 118 117 114 117 110 107 108 107 108 103 100 100 97 97 97 95 95 99 99 99 96 96 92 89 92 94 93 92 88
311 329 313 225 241 90 267 288 348 91 340 347 55 56 73 75 93 156 121 117 160 122 73 3 336 274 202 111 81 63 15 46 117 98 113 133 135 153 126 138 140 153 170 115 108 117 130 134 138 137 136 139 142 148 155 135 130 126 129 127 130 131 132 135 135 133 126 123 121 119 117 114 118 117 118 114 106 105 105 101 99 101 99 98 102 99 98 96 96 96 95 94 94 93 93 94 93
261 279 311 331 320 245 275 299 326 17 80 18 61 66 61 82 64 148 142 213 152 179 208 58 214 314 97 221 101 98 65 64 92 98 114 126 147 131 139 137 145 144 139 96 109 116 124 132 129 134 136 143 148 149 155 137 136 133 138 137 136 140 136 138 137 130 130 125 123 122 123 121 120 121 114 115 115 109 103 104 104 98 99 99 95 97 98 99 99 98 99 100 96 96 97 96 94
300 253 198 316 282 305 266 254 227 102 106 77 118 108 122 66 2 344 141 81 156 105 180 154 25 312 64 1 73 109 71 84 100 114 124 136 137 142 149 142 143 134 111 86 110 119 125 126 125 134 143 150 148 156 153 143 141 140 144 140 137 137 139 134 131 139 133 128 125 127 125 126 124 127 124 117 115 116 111 103 103 100 98 103 106 107 104 103 104 103 100 101 101 97 96 98 97
301 192 346 354 326 296 283 274 254 62 77 103 348 88 74 110 136 259 105 162 96 154 79 56 60 297 357 119 131 123 118 117 126 121 126 137 133 150 148 151 133 129 121 113 119 126 125 121 127 136 146 159 152 157 159 141 150 145 148 144 142 142 139 132 138 140 137 131 131 130 131 131 134 130 130 126 122 115 114 117 110 109 112 109 110 111 109 106 105 105 104 100 102 102 102 100 96
315 304 98 288 251 273 272 296 58 173 121 185 94 77 64 62 248 179 264 95 120 105 112 117 215 234 186 69 73 1 120 132 139 126 137 130 138 146 148 175 140 133 140 125 130 125 131 126 128 140 139 147 93 161 153 146 155 156 151 150 148 147 146 141 147 146 142 135 135 132 132 134 134 134 131 127 117 124 125 120 120 120 116 114 115 113 113 110 110 110 107 105 101 103 102 99 95
296 315 328 241 284 278 289 324 4 331 33 93 89 104 237 89 238 186 204 154 142 135 144 178 34 33 290 131 120 166 128 146 123 132 128 130 141 159 147 194 129 134 139 123 136 128 140 134 138 142 145 121 113 126 139 151 157 158 160 153 154 157 154 143 149 151 144 140 138 136 137 138 138 135 126 90 85 110 121 124 131 127 121 117 113 118 120 121 113 112 111 110 108 107 105 101 95
281 308 287 302 268 301 311 335 341 334 332 19 120 78 200 139 194 341 150 350 110 183 145 166 104 194 355 75 106 128 150 110 125 132 128 148 146 159 155 123 134 144 139 148 138 137 145 143 151 150 135 123 130 137 137 147 151 154 161 152 158 157 153 153 154 151 151 143 143 140 142 141 139 135 116 104 102 110 105 98 134 128 126 127 127 125 127 126 123 118 118 118 119 112 113 105 100
315 331 340 291 337 306 288 278 335 344 343 116 76 134 95 91 49 4 11 196 130 77 40 105 236 43 186 105 144 147 129 130 126 127 139 141 142 134 152 119 150 130 136 144 147 152 152 153 157 157 146 154 137 146 147 149 142 145 139 149 146 142 145 153 151 154 158 152 144 143 141 142 136 130 121 105 89 83 75 67 109 140 139 133 136 134 132 132 132 132 131 131 128 128 115 116 106
299 319 318 299 290 300 294 265 322 301 22 109 196 105 164 68 74 35 318 357 72 101 110 59 39 237 356 347 148 155 144 138 134 130 140 129 132 146 131 125 133 124 141 165 174 163 150 156 160 153 161 176 153 161 154 155 145 140 143 141 134 133 140 147 148 156 154 143 145 138 138 138 131 126 122 117 116 103 95 79 66 130 148 147 145 144 142 135 141 144 146 146 143 139 134 119 116
292 342 287 268 249 249 257 259 201 261 189 106 71 89 129 96 71 232 43 29 81 40 289 112 355 59 12 61 112 127 135 135 135 135 132 129 138 130 117 122 160 176 142 180 172 194 154 160 152 155 161 184 166 177 163 157 152 145 143 125 121 136 143 146 148 151 144 140 140 137 135 132 130 127 126 120 121 123 120 103 74 66 146 154 156 149 144 147 146 154 158 156 155 150 142 132 124
207 234 278 229 253 244 281 294 327 217 124 141 173 165 237 131 149 76 297 334 277 151 201 135 156 140 76 104 111 118 127 129 130 138 131 136 129 140 133 147 163 191 146 173 222 189 163 170 169 157 165 181 187 183 167 157 159 147 143 133 130 140 147 147 139 134 133 140 140 144 143 150 151 145 144 138 132 114 115 121 103 58 107 159 157 158 151 154 155 157 164 166 160 151 132 131 141
278 227 219 244 256 247 224 235 227 229 249 140 162 106 332 129 179 110 178 221 250 135 206 143 100 79 108 118 124 124 130 139 148 146 155 147 155 159 162 175 173 185 164 165 220 214 180 181 178 173 167 173 192 182 175 154 156 158 153 149 141 139 139 137 142 148 151 153 151 152 166 176 167 165 171 153 148 124 110 109 110 102 88 83 105 140 161 160 166 169 171 181 170 162 166 170 172
206 246 234 252 229 243 273 282 321 1 353 1 92 347 59 0 18 118 278 259 180 211 188 183 155 111 110 126 122 135 143 148 156 165 164 164 173 169 167 174 184 175 178 179 193 212 197 185 181 191 165 167 186 181 168 142 160 170 166 165 157 152 153 157 165 159 165 160 167 176 193 205 181 173 176 154 152 139 132 118 103 108 102 100 97 92 95 107 122 135 161 183 190 197 206 215 190
211 247 242 240 245 282 294 305 325 11 339 311 341 325 138 19 355 88 279 294 307 287 239 169 198 161 154 140 142 142 157 158 172 171 176 176 183 172 174 174 184 193 178 182 183 196 187 201 192 191 173 164 176 183 171 145 162 172 180 170 168 167 161 175 177 170 180 168 177 191 210 226 179 113 130 131 127 121 119 112 110 113 113 118 124 122 115 113 115 111 181 241 262 240 239 240 200
175 210 231 249 259 258 239 269 258 264 241 303 293 317 343 248 273 81 294 310 273 253 336 20 11 163 150 151 152 153 163 166 181 186 183 184 191 185 182 181 182 187 175 169 178 191 188 188 192 193 175 161 169 186 175 177 159 175 183 178 171 177 167 182 191 182 190 172 182 195 213 224 160 138 132 144 144 140 145 147 146 155 159 154 169 160 168 164 168 204 210 232 237 234 240 257 243
287 236 231 245 256 268 286 297 308 7 8 312 31 332 298 326 158 242 261 261 264 292 77 47 42 93 143 159 162 166 171 173 184 194 195 190 189 190 183 176 172 178 174 175 186 183 192 182 182 189 181 179 172 185 183 198 170 180 179 182 179 180 170 181 193 193 191 179 181 195 208 209 165 141 151 153 166 153 158 163 175 176 177 184 194 194 186 179 194 202 200 205 226 229 228 242 254
244 245 272 279 273 267 260 277 328 58 344 20 320 303 318 290 303 276 268 257 270 286 325 97 115 95 153 157 157 175 179 184 189 195 196 198 197 196 194 179 174 181 182 183 177 182 184 185 188 184 190 178 178 183 176 181 198 196 172 181 181 184 169 178 196 191 188 187 177 190 196 193 164 164 147 157 168 196 178 174 180 188 194 184 190 205 201 181 194 201 199 202 214 227 226 221 237
234 262 238 233 250 264 270 267 295 295 100 242 261 287 276 295 277 296 267 256 252 264 337 352 354 112 151 165 166 179 189 189 198 198 197 201 194 195 194 190 182 168 172 183 177 180 182 187 190 182 190 175 177 187 182 180 183 201 197 189 193 180 176 182 189 191 178 186 176 183 186 179 167 183 174 163 187 199 212 192 180 189 205 175 188 197 207 195 190 205 206 203 207 222 220 224 229
248 235 241 269 269 260 254 245 256 256 269 277 198 244 255 261 264 286 265 277 285 288 309 304 304 166 165 211 170 188 192 195 199 202 200 205 203 193 194 194 186 167 178 186 179 179 184 184 186 189 187 181 180 185 195 177 176 189 210 195 196 184 179 178 179 180 180 174 177 184 180 182 170 180 190 176 180 203 211 201 189 199 191 173 164 182 185 226 207 201 222 220 210 213 213 230 223
241 257 264 238 239 270 279 287 283 276 250 263 269 245 255 250 268 262 260 262 273 280 282 276 269 264 216 203 210 191 196 198 197 196 202 198 194 192 193 194 192 183 185 180 180 186 177 181 189 191 191 185 181 183 197 181 180 188 204 200 189 187 183 172 171 180 177 168 177 184 178 178 181 181 192 189 180 198 199 205 204 208 180 169 158 198 200 234 241 208 216 216 212 215 217 220 210
240 235 236 250 254 243 251 257 257 265 244 239 251 248 252 244 209 254 213 233 230 244 246 245 239 238 239 200 210 221 203 201 196 198 196 197 199 198 195 190 195 194 175 183 186 185 178 178 190 193 192 186 177 185 189 195 189 185 189 194 192 193 186 172 180 187 183 177 173 178 178 184 190 195 197 188 184 191 192 193 208 213 189 179 175 192 206 224 247 238 217 210 209 228 235 229 218
253 274 293 278 266 270 278 257 252 248 252 239 255 258 247 252 238 246 254 271 268 270 247 239 252 259 241 217 212 215 219 207 190 184 199 193 199 200 199 192 193 190 183 188 186 183 181 185 188 191 189 186 182 186 185 193 201 189 179 185 195 197 186 185 185 190 191 183 176 178 183 188 198 207 215 194 183 189 187 186 200 211 204 184 182 182 196 229 239 254 271 242 208 208 239 281 264
273 258 257 262 268 261 240 249 248 241 250 236 297 297 258 235 239 243 251 236 243 240 248 256 253 243 241 214 223 212 207 209 193 186 198 200 195 201 208 196 186 190 190 180 179 181 192 186 186 191 188 186 188 188 187 190 199 191 180 185 193 196 190 188 194 197 195 189 185 177 183 185 195 201 217 218 188 183 185 182 195 208 202 184 178 178 190 232 249 256 273 289 284 285 287 277 291
253 242 255 269 263 261 241 247 244 245 237 246 140 258 209 239 241 236 237 230 227 236 235 241 250 245 232 229 216 220 209 195 204 203 192 192 188 197 209 204 190 187 184 177 175 186 187 189 183 184 190 190 192 192 188 190 194 188 184 184 187 192 193 189 195 200 201 195 186 185 182 184 187 197 204 225 201 189 185 185 192 201 200 183 178 184 194 206 230 219 242 265 258 247 249 252 260
240 259 245 242 264 252 220 229 229 235 203 214 187 250 240 254 239 227 224 225 224 230 229 231 241 242 237 221 230 234 218 196 200 204 200 193 190 192 202 201 195 187 178 182 186 183 181 184 181 188 189 192 189 194 194 193 191 189 187 189 189 188 192 196 192 193 199 199 187 188 187 188 188 190 200 211 217 197 188 192 196 194 187 184 182 185 188 195 217 221 202 228 234 223 223 233 231
231 232 229 231 235 259 244 220 210 228 197 203 200 246 243 246 257 265 266 238 221 217 217 223 229 235 228 228 225 225 222 206 199 201 203 202 192 194 193 196 190 189 190 190 187 179 183 180 180 186 186 194 190 194 197 193 191 194 191 188 185 184 192 202 204 200 195 192 195 194 190 184 186 193 196 200 211 209 197 196 196 184 182 184 192 182 185 197 203 222 215 206 217 217 207 223 228
243 234 247 236 224 247 253 222 238 215 227 194 200 237 127 227 227 227 234 253 246 259 254 225 220 233 229 227 230 227 222 209 198 199 204 199 200 196 194 192 190 191 193 192 188 185 184 180 178 183 184 192 192 194 196 196 192 194 195 190 189 187 196 202 205 201 199 197 193 196 188 185 188 192 195 195 205 212 205 196 196 192 187 183 185 191 193 196 205 215 218 212 211 217 207 215 219
221 219 248 236 249 252 247 231 205 219 209 221 204 225 231 266 306 310 313 239 256 258 248 248 233 233 241 245 239 232 226 202 202 200 202 197 198 202 198 191 191 189 191 192 190 188 188 183 183 186 184 187 189 191 194 196 199 197 196 196 198 201 202 203 200 196 202 200 195 197 192 186 191 191 192 192 199 206 207 201 199 197 192 186 184 189 200 195 207 222 229 217 218 226 225 217 219
215 211 228 239 244 247 263 268 225 207 207 228 224 228 237 238 249 256 249 275 259 231 236 250 228 218 221 231 241 234 233 225 206 199 192 194 197 201 201 192 189 186 188 192 191 192 188 187 184 187 184 183 187 184 187 192 198 206 207 205 209 212 208 202 197 202 204 197 199 196 194 192 189 191 190 189 194 201 207 209 204 200 189 191 190 191 195 197 202 212 227 223 218 225 224 228 231
210 228 240 236 235 226 228 232 263 228 237 221 234 250 246 233 231 230 231 239 262 267 264 240 242 248 243 242 245 245 245 246 226 196 190 183 193 187 190 187 186 189 189 188 191 188 191 190 187 187 188 183 183 181 177 184 187 197 204 212 220 216 211 203 202 204 200 206 201 194 193 194 186 187 188 189 193 199 205 210 209 198 194 189 196 201 202 199 202 205 218 222 223 225 224 226 224
284 275 245 243 244 245 237 228 214 209 219 232 235 240 242 250 249 258 254 228 232 246 252 256 254 244 232 230 234 238 237 236 228 198 177 174 181 184 179 179 185 188 193 189 190 191 189 191 186 193 190 183 183 184 184 183 187 191 204 210 215 211 210 207 208 207 205 206 201 200 199 197 188 184 187 187 194 197 203 206 210 208 199 198 200 207 201 205 205 204 210 213 222 229 229 215 221
248 261 270 270 258 264 264 266 217 214 221 233 228 249 253 256 256 250 249 252 254 251 247 238 241 246 249 232 227 229 239 247 234 209 191 181 173 180 177 177 177 183 202 195 192 196 190 191 193 190 182 191 193 193 190 191 193 192 193 202 203 205 205 205 211 209 210 204 201 203 205 200 195 190 189 189 193 195 198 202 207 209 205 205 207 202 201 204 203 203 199 215 212 221 233 204 203
238 243 253 265 257 271 279 279 294 296 277 250 244 255 253 245 247 249 254 256 255 252 251 253 247 244 242 243 240 231 228 234 233 225 216 207 195 187 179 184 190 193 194 195 199 193 192 193 197 185 187 194 199 197 194 198 195 199 197 200 195 204 210 212 218 220 214 210 207 206 205 201 198 196 189 193 195 198 201 202 207 205 207 203 201 203 202 206 206 204 202 207 208 219 228 222 205
233 232 237 240 249 246 250 237 248 257 249 286 261 275 274 271 257 250 239 246 252 249 254 251 241 243 243 237 231 232 225 226 225 222 222 216 201 199 192 190 197 199 193 194 198 196 193 194 196 190 192 197 202 203 204 202 198 199 202 200 204 205 206 206 210 212 211 211 217 211 207 203 200 198 194 195 199 202 202 205 205 206 205 200 201 202 203 208 202 204 204 208 199 210 212 224 210
224 232 241 245 236 236 248 288 295 297 267 234 258 276 268 250 261 262 258 252 255 248 254 262 259 251 242 244 244 232 236 222 223 228 225 216 207 203 203 204 202 199 198 196 196 195 196 197 196 192 193 196 202 204 203 200 194 195 196 200 196 207 223 204 206 214 207 208 212 209 209 199 199 201 197 196 200 202 201 203 204 206 203 201 200 203 204 206 201 201 202 204 204 207 209 207 218
241 229 228 240 258 263 257 256 257 250 264 255 283 302 264 233 228 240 238 234 239 245 246 246 247 254 252 244 246 245 243 241 239 231 228 225 221 215 208 208 207 204 202 204 200 198 194 196 196 196 197 198 202 204 199 193 195 193 187 191 199 202 209 207 208 206 198 202 207 205 199 199 199 201 201 200 198 200 202 203 203 201 203 201 202 205 204 200 203 202 202 203 209 211 203 191 210
236 227 217 232 245 256 267 279 301 261 257 10 83 238 282 144 243 235 229 228 239 233 234 243 237 240 246 246 244 242 237 239 245 247 244 245 244 237 229 211 211 209 211 208 207 201 198 198 198 196 197 200 201 200 194 191 198 198 198 200 202 201 208 216 217 212 206 208 201 202 204 200 202 200 203 202 201 202 204 204 204 204 203 204 203 204 205 204 203 203 198 203 208 204 204 212 202
239 229 212 204 219 231 237 244 246 262 321 297 227 239 283 287 240 243 250 263 266 261 242 235 232 234 234 238 238 236 231 228 232 238 236 238 243 243 243 236 216 216 215 212 210 202 201 205 203 202 202 203 201 197 190 192 198 200 202 206 207 210 213 220 207 209 206 203 203 205 200 204 203 203 203 203 203 201 203 205 206 205 205 206 202 206 207 204 201 204 202 205 204 204 204 213 207
243 72 51 295 298 287 261 234 232 249 265 252 244 211 276 257 266 171 241 252 245 248 252 259 263 263 245 233 232 230 224 224 228 231 230 230 231 235 237 237 235 225 212 213 210 204 204 207 206 203 205 207 210 200 195 196 199 201 203 204 210 218 221 224 207 203 204 198 207 208 205 205 202 205 206 205 204 201 199 204 204 207 208 208 206 210 208 202 202 200 199 201 204 205 205 210 206
237 194 119 329 5 335 357 357 338 305 233 244 234 185 234 266 266 215 228 239 242 245 246 246 241 241 243 252 236 225 222 226 229 227 225 228 229 233 237 236 235 233 226 216 214 208 207 207 206 202 206 205 206 202 199 201 204 205 205 206 212 219 219 223 208 206 207 201 209 208 206 206 204 202 207 206 205 204 199 200 203 207 210 210 209 213 208 204 204 205 204 204 204 206 205 203 208
286 243 232 202 151 322 345 326 20 352 250 244 240 210 214 267 267 193 212 234 231 232 237 234 231 232 235 237 236 223 220 222 220 228 229 230 228 231 237 238 236 235 231 225 217 211 208 206 206 207 210 209 206 204 201 206 207 206 210 211 214 219 217 214 210 216 212 204 211 210 205 207 203 206 203 206 207 205 204 201 204 206 208 209 210 212 209 206 205 206 208 207 206 205 203 203 207
203 222 221 238 221 111 276 322 111 246 252 237 233 227 217 243 274 205 223 249 263 270 269 265 256 258 242 225 230 228 217 211 221 225 233 235 246 245 242 247 240 235 237 235 230 214 211 210 208 213 215 212 208 207 206 210 208 210 212 214 218 220 220 213 212 216 214 211 210 211 206 202 207 207 201 207 208 206 204 203 205 207 207 207 210 210 210 206 204 205 207 209 209 206 204 203 206
181 195 207 213 213 148 230 152 225 220 236 229 218 210 236 232 257 269 279 260 242 259 244 252 245 250 255 240 232 228 225 225 218 220 226 234 240 243 244 249 242 233 228 228 228 222 215 211 206 208 214 209 210 206 207 208 209 210 210 214 220 221 221 218 217 220 218 216 213 211 202 206 203 200 205 206 209 204 202 205 204 205 208 210 209 205 210 207 202 203 207 209 207 204 204 202 205
192 196 188 197 207 213 236 213 246 270 255 235 238 182 242 177 264 249 246 251 248 259 266 277 287 284 309 303 288 266 240 225 229 231 239 248 252 256 250 244 224 225 229 230 231 224 215 211 208 209 218 211 213 212 212 213 213 214 214 216 220 221 225 221 222 222 220 219 214 214 210 207 202 203 205 207 205 199 203 209 208 210 212 212 211 210 209 209 207 206 207 210 212 209 203 205 210
203 184 195 204 193 200 225 208 224 222 252 227 198 206 227 159 222 238 238 247 237 229 243 242 244 253 256 241 246 252 248 251 253 257 257 257 259 256 245 231 217 214 220 226 228 225 210 213 210 214 222 220 217 216 215 215 216 216 216 218 220 221 225 224 225 224 223 221 218 219 215 210 208 208 208 208 197 198 204 205 208 210 209 211 211 214 214 211 210 211 212 215 216 214 207 205 210
192 191 196 218 221 200 231 208 235 267 283 252 183 205 212 189 249 237 226 235 249 196 226 230 238 243 245 246 241 239 239 243 250 257 261 260 253 246 242 236 222 223 230 230 230 230 221 221 218 219 221 223 223 221 219 218 219 217 217 218 220 221 223 226 229 226 227 224 223 222 221 215 214 213 212 205 202 196 199 203 205 208 208 208 208 210 212 211 210 211 214 214 217 212 212 207 209
180 173 206 216 227 240 301 303 275 300 287 246 243 277 261 304 281 281 279 285 282 232 229 222 236 238 228 232 238 238 236 240 250 253 253 257 260 253 248 248 244 243 245 240 239 232 228 229 226 229 230 231 230 227 224 222 223 222 222 220 222 222 224 225 226 228 228 228 228 226 224 221 219 216 214 209 203 198 199 200 202 204 205 205 206 206 207 208 207 209 213 214 217 213 213 214 207
159 200 203 153 42 71 191 248 255 238 245 250 210 240 256 235 283 182 237 245 251 247 245 233 228 236 232 234 234 238 239 237 244 251 263 257 241 245 257 274 271 236 229 238 239 234 232 229 227 232 237 237 239 236 232 228 228 227 227 225 223 222 224 227 228 230 228 227 227 227 224 222 219 216 214 209 206 200 199 198 200 202 203 201 204 204 205 207 204 207 210 215 216 210 213 219 217
230 218 149 187 190 220 187 162 229 231 235 258 233 264 259 225 248 321 245 236 248 244 244 251 242 237 239 238 237 240 246 249 269 313 330 332 348 7 17 10 342 308 257 243 252 258 259 252 244 237 240 236 237 238 236 234 228 229 228 227 225 225 226 229 228 228 228 227 226 224 221 221 221 216 214 212 206 202 200 199 199 200 199 200 201 202 201 205 205 207 206 211 210 209 211 216 218
224 241 264 13 104 241 203 199 308 277 274 276 249 214 250 204 243 232 270 276 282 301 333 12 349 345 302 241 220 262 287 355 38 42 38 32 23 9 355 325 306 303 310 299 288 289 276 260 257 256 258 258 256 249 243 240 234 233 236 232 231 227 227 228 227 224 225 227 227 225 223 221 220 215 216 211 208 206 202 199 200 200 199 199 199 201 199 202 204 209 206 208 208 205 210 215 215
196 204 221 199 198 192 53 1 209 212 248 240 278 256 232 224 272 269 323 8 21 35 7 345 345 338 21 32 38 45 53 51 44 37 19 358 336 322 315 306 295 293 283 277 268 262 258 259 258 256 254 257 254 251 247 244 238 237 237 237 236 230 230 227 229 225 226 227 228 225 224 223 221 222 215 213 212 208 204 202 198 199 199 199 199 200 199 200 202 205 209 209 205 204 209 214 212
197 192 200 209 199 196 211 243 179 204 196 219 235 252 246 245 286 30 346 338 17 32 36 355 355 10 21 13 15 12 48 49 59 355 341 323 322 311 298 298 300 300 301 310 299 281 276 269 261 267 265 259 258 260 249 250 243 241 239 239 238 235 232 229 229 227 226 226 225 224 223 222 223 224 216 218 214 211 207 203 201 200 201 201 201 201 199 198 200 202 207 207 206 205 209 212 211